Погода в Пыталово

Россия / Псковская область     57°03′50″N   27°55′26″E
темп.,
°C
ветер,
м/с
пор.,
м/с
влажн.,
%
обл.,
%
осадки,
мм/ч
давл.,
гПа
погр.,
м
6 мая, чт
чт600:00+8юв4996100 0.6 998239
03:00+8ююв3897100 2.6 995315
06:00+6зсз3895100 2.6 995443
09:00+7ююз3690100 3.2 995404
12:00+9зюз61082100 1.3 995962
15:00+8зюз81381100 2.2 9971450
18:00+7юз71481100 0.4 9991319
21:00+6юз71481100 0.6 9991261
7 мая, пт
пт700:00+6юз81482100 0.1 10001400
03:00+5юз8147995 0.2 10011065
06:00+5юз71276100 0.0 10021221
09:00+5юз61178100 0.0 1004859
12:00+8юз6965100 0.1 10051607
15:00+10юз585875 0.3 10051637
18:00+11зюз2354100 0.0 10041283
21:00+7св3570100 0.0 1003105
8 мая, сб
сб800:00+6всв2597100 2.9 1001223
03:00+7юв2497100 5.1 998181
06:00+7юв2697100 2.0 997328
09:00+8ююз2493100 3.1 997372
12:00+5сз71096100 0.9 998640
15:00+3зсз71397100 1.6 1000901
18:00+3сз81597100 1.6 10031058
21:00+4сз81590100 2.6 10061039
9 мая, вс
вс900:00+3зсз7158554 0.0 1009767
03:00+1зсз615875 0.0 1012478
06:00+1з512932 0.0 1015359
09:00+6з587213 0.0 1017561
12:00+10зюз5652100 0.0 10181293
15:00+12юз5749100 0.0 10181756
18:00+12юз5755100 0.0 10191838
21:00+8ююз367298 0.0 101993
10 мая, пн
пн1000:00+6ю3675100 0.0 1020112
03:00+7ююв41386100 0.4 1019437
06:00+8ю3983100 0.0 1020370
09:00+10ююз3884100 0.0 1021299
12:00+16ююз46665 0.0 1022673
15:00+20юз565478 0.0 10221589
18:00+19ю4661100 0.0 1021849
21:00+14ююв3984100 0.0 1022179